{"data":{"norad_id":46689,"intl_designator":"2020-073V","name":"STARLINK-1788","alt_names":[],"object_type":"PAYLOAD","status":"ACTIVE","operator":null,"country":"US","launch_date":"2020-10-18","launch_site_code":"AFETR","launch_vehicle":null,"mission":null,"orbit_class":"UNKNOWN","rcs_meters":null,"size_class":null,"mass_kg":null,"dimensions":null,"purposes":["comms"],"wikipedia_slug":null,"has_3d_model":false,"image_url":null,"decayed_at":null,"tle_current":{"epoch":"2026-07-18T18:38:18.298752Z","epoch_age_seconds":5527617,"freshness":"OLD","line1":"1 46689U 20073V   26199.77660068  .06702479  12378-4  65754-3 0  9992","line2":"2 46689  53.0131 279.9002 0008503 320.1730  39.8690 16.37363168319438","mean_motion":16.37363168,"eccentricity":0.0008503,"inclination_deg":53.0131,"raan_deg":279.9002,"arg_perigee_deg":320.173,"mean_anomaly_deg":39.869,"bstar":0.00065754,"rev_number":31943,"period_min":87.946280223155,"perigee_km":167.25597084039,"apogee_km":178.39653895166,"semimajor_km":6550.963254896,"source":"CELESTRAK","updated_at":"2026-07-19T09:00:48.218467Z"}}}